www.pogodaiklimat.ru

Погода и климат >> Архив погоды >> Мексика >> Toluca


ПОГОДА в Toluca

  • Прогноз погоды в Toluca
  • Монитор погоды в Toluca
  • Климат города

АРХИВ ПОГОДЫ в Toluca

Время (UTC), дата Ветер
(напр.,м/с)
 
Видим.   Явления Облачность Т
(С)
Тd
(С)
f
(%)
Тe
(С)
Тes
(С)
Комфортность P
(гПа)
Po
(гПа)
Тmin
(С)
Tmax
(С)
R
(мм)
R24
(мм)
S
(см)
03 15.10 З 1
{3}
10 км {гроза} 9/5 800 м
[Sc diur, vesp Ac trans]
+12.7 +2.9 51 +13 +13 1008.1 739.8
06 15.10 ЮЗ 1 10 км 5/4 600 м
[Sc diur, vesp Ac trans]
+12.0 +8.9 81 +12 +12 1009.9 739.9 +7.5 +24.0
12 15.10 штиль 0 15 км 3/1 800 м
[Sc diur, vesp Ac As]
+8.0 +5.7 85 +7 +7 1015.4 739.6 +6.9 +24.0
15 15.10 В 1 30 км мгла {туман} 3/0
[Ac As]
+14.3 +8.7 69 +15 +19 1018.1 740.8
18 15.10 СЗ 1 25 км мгла {туман} 6/1 800 м
[Cu med, cong Ac As Ci]
+21.3 +7.9 42 +22 +35 комфорт 1014.9 740.0 +6.0 +22.1
21 15.10 СЗ 2 20 км 9/9 800 м
[Cb calv]
+23.7 +9.3 40 +25 +26 комфорт 1008.9 738.2
00 16.10 ЮЗ 3 15 км гроза без осадков {дождь} 9/9 600 м
[Cb calv]
+13.8 +9.4 75 +13 +13 1008.6 739.1 13
03 16.10 штиль 0 10 км {гроза} 6/4 800 м
[Sc diur, vesp Ac trans]
+12.3 +9.4 82 +12 +12 1010.7 741.1
06 16.10 СВ 1 10 км 10/5 600 м
[Sc diur, vesp Ac trans]
+11.9 +9.5 85 +12 +12 1013.4 741.6 +6.0 +25.3
09 16.10 С 1 10 км 9/5 800 м
[Sc diur, vesp Ac und]
+11.6 +9.4 86 +11 +11 1015.4 740.8
12 16.10 СЗ 1 15 км мгла {туман} 9/4 800 м
[Sc diur, vesp Ac und]
+10.0 +8.2 89 +9 +9 1016.9 741.0 +9.0 +25.3
15 16.10 В 1 20 км {туман} туман 5/5 800 м
[Cu med, cong]
+12.6 +7.9 73 +13 +16 1018.7 742.0
18 16.10 СВ 2 25 км {туман} 8/1 800 м
[Cb cap]
+17.3 +8.4 56 +18 +26 1016.9 741.7 +8.6 +18.4
21 16.10 ЮВ 2 25 км мгла {туман} 5/5 800 м
[Cb calv]
+19.7 +7.0 44 +21 +26 комфорт 1012.6 739.9
00 17.10 СВ 6 15 км 8/5 600 м
[Cb calv Ac trans]
+15.2 +7.4 60 +14 +14 1011.0 740.1 +8.6 +20.8
06 17.10 штиль 0 10 км 3/3 600 м
[Sc diur, vesp]
+8.9 +6.7 86 +8 +8 1015.2 741.8 +8.6 +20.8
09 17.10 С 1 10 км 5/1 800 м
[Sc diur, vesp Ac und]
+7.3 +6.3 93 +6 +6 1016.7 740.8
12 17.10 З 1 15 км мгла {туман} 4/0
[Ac trans]
+6.4 +5.3 93 +5 +5 1019.7 740.8 +5.3 +20.8
15 17.10 СВ 1 35 км {туман} 1/1 800 м
[Cu hum]
+12.5 +6.5 67 +13 +18 1022.3 742.1
18 17.10 СВ 2 30 км {туман} туман 1/1 800 м
[Cu med, cong]
+19.4 +7.0 44 +21 +35 комфорт 1019.5 741.7 +5.0 +20.1
21 17.10 С 3 25 км мгла {туман} 3/3 800 м
[Cu med, cong]
+21.3 +6.9 39 +22 +28 комфорт 1012.2 739.1
00 18.10 СВ 3 15 км мгла {туман} 6/6 600 м
[Cb calv]
+17.2 +7.3 52 +17 +17 1009.0 739.2 +5.0 +23.0
06 18.10 С 1 10 км 4/1 600 м
[Sc diur, vesp Ac As]
+10.5 +8.2 86 +10 +10 1011.8 740.8 +5.0 +23.0
09 18.10 З 1 10 км 3/1 800 м
[Sc diur, vesp Ac As]
+8.3 +6.2 87 +8 +8 1014.1 740.1
12 18.10 Ю 1 15 км мгла {туман} ясно +6.3 +4.5 88 +5 +5 1017.5 740.2 +5.2 +23.0
15 18.10 Ю 1 18 км {туман} туман ясно +12.1 +9.0 81 +12 +18 1020.5 741.3
18 18.10 СЗ 1 18 км {туман} туман 3/3 800 м
[Cu hum]
+21.1 +9.5 47 +22 +35 комфорт 1017.9 741.1 +5.0 +21.5
21 18.10 З 1 20 км мгла {туман} 8/8 800 м
[Cb calv]
+21.6 +6.9 39 +22 +25 комфорт 1011.7 739.1
00 19.10 Ю 2 15 км мгла {туман} 9/9 600 м
[Cb calv]
+17.2 +10.1 63 +18 +18 1008.4 738.9 +5.0 +23.4
03 19.10 СВ 1 10 км 3/1 800 м
[Sc diur, vesp Ac trans]
+15.0 +5.2 52 +16 +16 1008.3 740.2
06 19.10 штиль 0 10 км ясно +11.4 +5.8 68 +11 +11 1009.7 739.9 +5.0 +23.4
15 19.10 С 9 15 км {туман} туман ясно +12.9 +10.9 88 +10 +10 1017.0 740.1
18 19.10 Ю 1 25 км {туман} туман 3/3 800 м
[Cu med, cong]
+22.7 +9.7 44 +24 +37 комфорт 1013.8 739.4 +7.9 +23.0
21 19.10 С 1 20 км 9/9 800 м
[Cb calv]
+24.0 +7.7 35 +24 +26 комфорт 1007.2 737.3
00 20.10 СВ 1 10 км гроза без осадков {дождь} 9/9 600 м
[Cb calv]
+13.5 +9.7 78 +14 +14 1007.9 738.7 3
03 20.10 СЗ 1 10 км слабый дождь {гроза} 10/10 800 м
[Cb cap]
+11.6 +6.6 71 +12 +12 1009.9 740.5 0.4
06 20.10 В 1 10 км {гроза, дождь} 1/1 600 м
[Sc diur, vesp]
+10.8 +12 +12 1011.6 740.0 +7.9 +25.8 0.4
09 20.10 Ю 1 12 км 3/3 800 м
[Sc diur, vesp]
+8.4 +6.3 87 +8 +8 1014.7 739.3
12 20.10 штиль 0 12 км ясно +6.6 +5.4 92 +6 +6 1016.5 739.2 +5.9 +25.8
15 20.10 Ю 2 35 км ясно +12.4 +7.5 72 +12 +16 1018.9 740.2
18 20.10 ЮЗ 2 35 км ясно +21.3 +6.2 37 +22 +38 комфорт 1017.3 740.8 +5.3 +22.5
21 20.10 С 2 25 км мгла {туман} 9/9 800 м
[Cb cap]
+22.8 +6.2 34 +23 +24 комфорт 1008.6 737.2
00 21.10 Ю 3 20 км {гроза, дождь} 9/5 600 м
[Cb calv Ac trans]
+15.9 +6.7 54 +16 +16 1006.0 737.3 0.0
09 21.10 ЮВ 1 12 км ясно +7.3 +3.5 77 +7 +7 1011.8 738.2
12 21.10 Ю 1 12 км ясно +5.0 +2.1 81 +4 +4 1015.0 738.1 +4.5 +24.4
15 21.10 С 1 35 км ясно +11.9 +6.9 71 +12 +17 1018.8 739.5
18 21.10 З 2 25 км мгла {туман} 3/3 800 м
[Cu med, cong]
+21.8 +8.4 42 +23 +34 комфорт 1016.0 739.0 +3.3 +22.6
21 21.10 С 2 25 км мгла {туман} 5/4 800 м
[Cu med, cong Ac trans]
+24.1 +6.6 32 +24 +30 комфорт 1009.1 736.9

 

Местоположение метеостанции Toluca (Мексика): широта 19.28 долгота -99.68 высота над уровнем моря 2720 м.

В архиве по умолчанию представлена погода в Toluca за последнюю неделю. Архивные данные за месяц целиком и за предыдущие месяцы, начиная с января 2011 года, Вы можете получить, выбрав интересующий диапазон дат из раскрывающегося списка и нажав кнопку "Ввод!".

Внимание! Время в таблицах - всемирное. Для получения местного времени необходимо прибавить поправку, которая в Toluca равна -6 ч.

Смотрите также архив погоды в соседних городах и на ближайших метеорологических станциях:

Погода в Geografia Unam (Мексика) (53 км)
Погода в Mexico City (Мексика) (54 км)
Погода в Cuernavaca (Мексика) (65 км)
Погода в Zacatepec (Мексика) (84 км)
Погода в Pachuca (Мексика) (136 км)
Погода в Tlaxcala (Мексика) (150 км)
Погода в Tlaxcala Airport (Мексика) (151 км)
Погода в Morelia (Мексика) (156 км)
Погода в Puebla (Мексика) (162 км)
Погода в Queretaro (Мексика) (163 км)

Пояснения к столбцам:

Ветер - указаны скорость ветра в м/с - средняя за 10 мин, порывы в срок и между сроками (в фигурных скобках) и направление, откуда дует ветер: С - северный, СВ - северо-восточный, В - восточный, ЮВ - юго-восточный, Ю - южный, ЮЗ - юго-западный, З - западный, СЗ - северо-западный.
Видимость - горизонтальная дальность видимости в метрах или километрах. При видимости от 1 до 10 км при отсутствии осадков обычно наблюдается дымка, при ухудшении видимости до 1 км и менее - туман. В сухую погоду видимость может ухудшаться дымом, пылью или мглою.
Явления - указаны атмосферные явления, наблюдавшиеся в срок или в последний час перед сроком; фигурными скобками обозначены явления, наблюдавшиеся между сроками (за 1-3 часа до срока); квадратными скобками обозначены град или гололедные отложения с указанием их диаметра в мм.
Облачность - указаны через наклонную черту общая и нижняя облачность в баллах и высота нижней границы облаков в метрах; квадратными скобками обозначены формы облаков: Ci - перистые, Cs - перисто-слоистые, Cc - перисто-кучевые, Ac - высококучевые, As - высокослоистые, Sc - слоисто-кучевые, Ns - слоисто-дождевые, Cu - кучевые, Cb - кучево-дождевые. Подробнее классификацию облаков см. в Атласе облаков (PDF).
T - Температура воздуха - температура, измеренная на высоте 2 м над землей.
Td - Температура точки росы - температура, при понижении до которой содержащийся в воздухе водяной пар достигнет насыщения.
f - Относительная влажность воздуха - влажноcть воздуха, измеренная на высоте 2 м над землей.
Te - Эффективная температура - температура, которую ощущает одетый по сезону человек в тени. Характеристика душности погоды. При расчете учитывается влияние влажности воздуха и скорости ветра на теплоощущения человека.
Tes - Эффективная температура на солнце - температура, которую ощущает человек, с поправкой на солнечный нагрев. Характеристика знойности погоды. Зависит от высоты солнца над горизонтом, облачности и скорости ветра. Ночью, в пасмурную погоду, а также при ветре 12 м/с и более поправка равна нулю.
P - Атмосферное давление - приведенное к уровню моря атмосферное давление.
Po - Атмосферное давление - измеренное на уровне метеостанции атмосферное давление.
Tmin - Минимальная температура - минимум температуры воздуха на высоте 2 м над землей.
Tmax - Максимальная температура - максимум температуры воздуха на высоте 2 м над землей.
R - Количество осадков - Количество выпавших осадков за период времени, мм. При наведении курсора мыши на число - период времени, за который выпало указанное количество осадков.
R24 - Количество осадков - Количество выпавших осадков за 24 часа, мм.
S - Снежный покров - Высота снежного покрова, см. При наведении курсора мыши на число - состояние снежного покрова и степень покрытия местности в баллах.